Location: Unspecified
(46.3292°N, 0.0000°E)
Time: 04:04:57
(UTC+00:00)

Courier 1B - Visible Passes

Search period start: 04 April 2026 00:00
Search period end: 14 April 2026 00:00
Orbit: 962 x 1208 km, 28.3° (Epoch: 28 March)

Date Brightness Start Highest point End Pass type
(mag) Time Alt. Az. Time Alt. Az. Time Alt. Az.
4 Apr 9.3 03:13:56 19° S 03:14:02 19° S 03:19:07 10° SE visible
4 Apr 9.5 05:02:32 10° SW 05:07:01 17° SSW 05:11:33 10° SSE visible
5 Apr 9.7 02:23:20 14° SE 02:23:20 14° SE 02:25:07 10° SE visible
5 Apr 9.3 04:10:13 14° SW 04:13:18 18° S 04:18:08 10° SSE visible
6 Apr 9.2 03:19:39 18° S 03:19:39 18° S 03:24:31 10° SE visible
7 Apr 9.7 02:29:09 14° SSE 02:29:09 14° SSE 02:30:46 10° SE visible
7 Apr 9.4 04:16:03 12° SW 04:18:50 15° SSW 04:22:41 10° SSE visible
8 Apr 9.3 03:25:37 16° S 03:25:37 16° S 03:29:27 10° SSE visible
9 Apr 9.8 02:35:15 12° SSE 02:35:15 12° SSE 02:35:58 10° SSE visible
9 Apr 9.6 04:23:42 10° SSW 04:24:20 10° SSW 04:24:58 10° SSW visible
10 Apr 9.6 03:31:53 12° S 03:31:53 12° S 03:33:23 10° S visible
